sat.trackr.live / text

‹ back to catalog

STARLINK-5682

NORAD 55457 · 2023-015J

PAYLOAD ACTIVE UNKNOWN

§ Identity

Operator
Country
US
Launch date
2023-02-02
Launch site
AFETR
Launch vehicle
Mass (kg)
RCS (m²)

Purposes: comms

External: N2YO · Heavens-Above · Gunter

§ Orbital elements

Epoch: 2026-05-24T23:54:41.971968Z

Period
94.27 min
Inclination
43.0032°
Eccentricity
0.0001278
Mean motion
15.27575906 rev/d
Perigee alt
482.2 km
Apogee alt
483.9 km
Semi-major
6,861.2 km
B*
5.6609e-5
RAAN
257.6532°
Arg perigee
270.6001°
Mean anomaly
89.4705°
Rev number
18,239

§ Raw data

STARLINK-56821 55457U 23015J   26144.99631912  .00001296  00000+0  56609-4 0  99912 55457  43.0032 257.6532 0001278 270.6001  89.4705 15.27575906182397

JSON: /api/v1/satellites/55457 · /tle

For live sub-satellite position, see the globe view (requires WebGL).

§ Visibility from observer

Set your observer location to see the next 7 days of passes ≥ 10°. The values pass through the URL so the page stays shareable.

No JS? Fill the form by hand. The geolocation button needs JavaScript.